Mojave, CA

6:31 AM PDT on October 18, 2019 (GMT -0700)
Mojave

Weather History for KMHV - May, 2019

Change the Weather History Date:

Friday, May 31, 2019

  Actual Average Record
Temperature  
Mean Temperature 70 °F -  
Max Temperature 82 °F 85 °F 102 °F (2001)
Min Temperature 59 °F 59 °F 42 °F (2011)
Cooling Degree Days 6    
Growing Degree Days 20 (Base 50)    
Moisture  
Dew Point 43 °F    
Average Humidity 40    
Maximum Humidity 63    
Minimum Humidity 14    
Precipitation  
Precipitation 0.00 in - - ()
Sea Level Pressure  
Sea Level Pressure 29.88 in    
Wind  
Wind Speed 8 mph (WSW)    
Max Wind Speed 23 mph    
Max Gust Speed 30 mph    
Visibility 10 miles    
Events      
Averages and records for this station are not official NWS values.
T = Trace of Precipitation, MM = Missing Value Source: NWS Daily Summary

Daily Weather History Graph

Daily Weather History Graph

Search for Another Location

Airport or City:

Astronomy

May. 31, 2019 Rise Set
Actual Time 5:40 AM PDT 8:00 PM PDT
Civil Twilight 5:10 AM PDT 8:30 PM PDT
Nautical Twilight 4:35 AM PDT 9:05 PM PDT
Astronomical Twilight 3:56 AM PDT 9:45 PM PDT
Moon 4:06 AM PDT (5/31) 5:23 PM PDT (5/31)
Length of Visible Light 15h 19m
Length of Day
14h 20m
Waning Crescent, 8% of the Moon is Illuminated
May 31
Waning Crescent
Jun 3
New
Jun 9
First Quarter
Jun 17
Full
Jun 25
Last Quarter

Hourly Weather History & Observations

Time (PDT) Temp. Dew Point Humidity Pressure Visibility Wind Dir Wind Speed Gust Speed Precip Events Conditions
12:00 AM 68.0 °F 48.2 °F 49% 29.91 in 10.0 mi SW 8.1 mph - N/A   Clear
12:20 AM 68.0 °F 48.2 °F 49% 29.91 in 10.0 mi SW 6.9 mph - N/A   Clear
12:40 AM 68.0 °F 46.4 °F 46% 29.91 in 10.0 mi SW 9.2 mph - N/A   Partly Cloudy
1:20 AM 68.0 °F 46.4 °F 46% 29.91 in 10.0 mi West 10.4 mph - N/A   Scattered Clouds
1:40 AM 66.2 °F 46.4 °F 49% 29.91 in 10.0 mi WSW 10.4 mph - N/A   Mostly Cloudy
2:00 AM 66.2 °F 46.4 °F 49% 29.90 in 10.0 mi West 9.2 mph - N/A   Mostly Cloudy
2:20 AM 66.2 °F 46.4 °F 49% 29.90 in 10.0 mi West 9.2 mph - N/A   Scattered Clouds
2:40 AM 64.4 °F 46.4 °F 52% 29.90 in 10.0 mi SW 5.8 mph - N/A   Scattered Clouds
3:00 AM 62.6 °F 46.4 °F 55% 29.90 in 10.0 mi WSW 9.2 mph - N/A   Partly Cloudy
3:40 AM 60.8 °F 46.4 °F 59% 29.89 in 10.0 mi WSW 4.6 mph - N/A   Scattered Clouds
4:00 AM 60.8 °F 46.4 °F 59% 29.89 in 10.0 mi Calm Calm - N/A   Scattered Clouds
4:20 AM 60.8 °F 46.4 °F 59% 29.89 in 10.0 mi Calm Calm - N/A   Scattered Clouds
4:40 AM 59.0 °F 46.4 °F 63% 29.89 in 10.0 mi West 3.5 mph - N/A   Scattered Clouds
5:00 AM 60.8 °F 46.4 °F 59% 29.89 in 10.0 mi Calm Calm - N/A   Scattered Clouds
5:20 AM 60.8 °F 46.4 °F 59% 29.90 in 10.0 mi Calm Calm - N/A   Scattered Clouds
5:40 AM 59.0 °F 46.4 °F 63% 29.90 in 10.0 mi NW 4.6 mph - N/A   Clear
6:20 AM 60.8 °F 46.4 °F 59% 29.91 in 10.0 mi Calm Calm - N/A   Clear
6:40 AM 62.6 °F 48.2 °F 59% 29.91 in 10.0 mi Calm Calm - N/A   Clear
7:00 AM 62.6 °F 48.2 °F 59% 29.91 in 10.0 mi Calm Calm - N/A   Clear
7:20 AM 64.4 °F 46.4 °F 52% 29.92 in 10.0 mi SSE 3.5 mph - N/A   Clear
7:40 AM 66.2 °F 46.4 °F 49% 29.92 in 10.0 mi Calm Calm - N/A   Clear
8:20 AM 68.0 °F 46.4 °F 46% 29.92 in 10.0 mi East 6.9 mph - N/A   Clear
8:40 AM 68.0 °F 46.4 °F 46% 29.93 in 10.0 mi Variable 5.8 mph - N/A   Clear
9:00 AM 68.0 °F 46.4 °F 46% 29.93 in 10.0 mi NE 4.6 mph - N/A   Clear
9:20 AM 69.8 °F 46.4 °F 43% 29.93 in 10.0 mi ENE 4.6 mph - N/A   Clear
9:40 AM 71.6 °F 44.6 °F 38% 29.92 in 10.0 mi Calm Calm - N/A   Clear
10:20 AM 73.4 °F 44.6 °F 36% 29.92 in 10.0 mi Variable 4.6 mph - N/A   Clear
10:40 AM 75.2 °F 44.6 °F 34% 29.92 in 10.0 mi Calm Calm - N/A   Clear
11:00 AM 75.2 °F 44.6 °F 34% 29.92 in 10.0 mi NNE 5.8 mph - N/A   Clear
11:20 AM 77.0 °F 41.0 °F 28% 29.92 in 10.0 mi North - - N/A   Clear
11:40 AM 77.0 °F 35.6 °F 22% 29.91 in 10.0 mi Variable 5.8 mph 12.7 mph N/A   Unknown
12:20 PM 78.8 °F 35.6 °F 21% 29.91 in 10.0 mi Variable 6.9 mph 15.0 mph N/A   Unknown
12:40 PM 78.8 °F 33.8 °F 20% 29.90 in 10.0 mi South 8.1 mph 16.1 mph N/A   Clear
1:00 PM 78.8 °F 37.4 °F 23% 29.89 in 10.0 mi SSE 11.5 mph - N/A   Clear
1:20 PM 78.8 °F 35.6 °F 21% 29.88 in 10.0 mi SSW 9.2 mph - N/A   Clear
1:40 PM 80.6 °F 35.6 °F 20% 29.88 in 10.0 mi Variable 4.6 mph 13.8 mph N/A   Clear
2:20 PM 82.4 °F 28.4 °F 14% 29.86 in 10.0 mi South 11.5 mph 21.9 mph N/A   Clear
2:40 PM 82.4 °F 28.4 °F 14% 29.86 in 10.0 mi SSW 16.1 mph - N/A   Clear
3:00 PM 82.4 °F 30.2 °F 15% 29.85 in 10.0 mi SW 8.1 mph - N/A   Clear
3:20 PM 82.4 °F 28.4 °F 14% 29.84 in 10.0 mi West 9.2 mph 17.3 mph N/A   Clear
3:40 PM 82.4 °F 30.2 °F 15% 29.83 in 10.0 mi South 12.7 mph - N/A   Clear
4:00 PM 82.4 °F 30.2 °F 15% 29.83 in 10.0 mi SW 9.2 mph 20.7 mph N/A   Clear
4:20 PM 82.4 °F 32.0 °F 16% 29.82 in 10.0 mi WSW 9.2 mph 15.0 mph N/A   Clear
5:00 PM 82.4 °F 35.6 °F 19% 29.82 in 10.0 mi SW 23.0 mph - N/A   Clear
5:20 PM 82.4 °F 35.6 °F 19% 29.81 in 10.0 mi SW 19.6 mph 27.6 mph N/A   Clear
5:40 PM 80.6 °F 33.8 °F 18% 29.81 in 10.0 mi SSW 20.7 mph - N/A   Clear
6:00 PM 80.6 °F 30.2 °F 16% 29.81 in 10.0 mi WSW 20.7 mph - N/A   Clear
6:20 PM 80.6 °F 28.4 °F 15% 29.81 in 10.0 mi WSW 18.4 mph 25.3 mph N/A   Clear
6:40 PM 80.6 °F 30.2 °F 16% 29.81 in 10.0 mi WSW 15.0 mph 24.2 mph N/A   Clear
7:20 PM 75.2 °F 51.8 °F 44% 29.82 in 10.0 mi WNW 19.6 mph 26.5 mph N/A   Clear
7:40 PM 73.4 °F 51.8 °F 47% 29.83 in 10.0 mi West 17.3 mph 25.3 mph N/A   Clear
8:00 PM 71.6 °F 51.8 °F 50% 29.83 in 10.0 mi WNW 21.9 mph - N/A   Clear
8:20 PM 71.6 °F 51.8 °F 50% 29.83 in 10.0 mi West 20.7 mph 29.9 mph N/A   Clear
8:40 PM 69.8 °F 51.8 °F 53% 29.83 in 10.0 mi WSW 17.3 mph 26.5 mph N/A   Clear
9:20 PM 69.8 °F 51.8 °F 53% 29.84 in 10.0 mi West 20.7 mph 27.6 mph N/A   Clear
9:40 PM 69.8 °F 51.8 °F 53% 29.85 in 10.0 mi West 16.1 mph 23.0 mph N/A   Clear
10:20 PM 68.0 °F 51.8 °F 56% 29.85 in 10.0 mi West 13.8 mph 21.9 mph N/A   Clear
10:40 PM 68.0 °F 51.8 °F 56% 29.86 in 10.0 mi WNW 11.5 mph 24.2 mph N/A   Clear
11:00 PM 68.0 °F 51.8 °F 56% 29.86 in 10.0 mi WNW 17.3 mph - N/A   Clear
11:20 PM 68.0 °F 50.0 °F 52% 29.86 in 10.0 mi NW 8.1 mph - N/A   Clear